RESURS P2 (40360 NORAD) Tracking and Keplerian Element Data

This shows tracking and keplerian element data for the satellite.

Feedback or suggestion? Click here.




ElementValue
Catalog40360
NameRESURS P2
Epoch Orbit24682
Epoch Day146.20616573
Epoch Year2019
RAAN237.3157
Inclination97.2568
Eccentricity0.0010841
Argument of Perigee128.5181
Mean Anonmoly293.5412
Mean Motion15.3309244
Decay Rate3.74E-06
L11 40360U 14087A 19146.20616573 .00000374 00000-0 14061-4 0 9994
L22 40360 97.2568 237.3157 0010841 128.5181 293.5412 15.33092440246829

Live tracking and technical data element details for RESURS P2 (NORAD 40360). RESURS P2 can be tracked NOW for your location showing map with azimuth and elevation plus other details from your city location.

Track the satellite on the map from your city or location and see movement details for azimuth, elevation, latitude, longitude, range, height, and movement on the map or in text.







IsCatalogInMostPopularTable: catalog: 40360, numindb: 220
Update: records affected: 1



GetName: 40360 RESURS P2

Hit Count: updated at: Sun, 26 May 2019 19:44:15 GMT